Regional Weather Roundup
Issued by NWS

Home | Current Version | Previous Version | Text Only | Print | Product List | Glossary Off
Versions: 1 2 3 4 5 6 7 8 9 10 11 12 13 14 15 16 17 18 19 20 21 22 23 24 25 26 27 28 29 30 31 32 33 34 35 36 37 38 39 40 41 42 43 44 45 46 47 48 49 50

000
ASUS43 KLOT 200104
RWRIL

ILLINOIS REGIONAL WEATHER ROUNDUP
NATIONAL WEATHER SERVICE CHICAGO/ROMEOVILLE IL
800 PM CDT TUE SEP 19 2017

NOTE: "FAIR" INDICATES FEW OR NO CLOUDS BELOW 12,000 FEET WITH NO
SIGNIFICANT WEATHER AND/OR OBSTRUCTIONS TO VISIBILITY.

* THESE STATIONS ARE NOT UNDER NWS QUALITY CONTROL. THEY ALSO MAY NOT
  REPORT WEATHER SUCH AS PRECIPITATION OR FOG.

ILZ001-002-007-009-015-016-024-200200-
NORTHWEST ILLINOIS

CITY           SKY/WX    TMP DP  RH WIND       PRES   REMARKS
MOLINE         CLEAR     70  63  78 E8        29.84S
STERLING*        N/A     70  66  87 CALM      29.89R
SAVANNA*       CLEAR     67  64  90 SE5       29.86S
$$

ILZ003-004-008-010-011-017-018-200200-
NORTH CENTRAL ILLINOIS

CITY           SKY/WX    TMP DP  RH WIND       PRES   REMARKS
ROCKFORD       CLEAR     71  62  73 E12       29.90R
FREEPORT*      MOCLDY    68  64  85 SE6       29.90R
ROCHELLE*      CLEAR     67  64  88 E7        29.90R
DE KALB*       CLEAR     67  61  81 E7        29.92R
PERU*          CLEAR     71  63  77 SE3       29.89R
$$

ILZ005-006-012>014-019>023-200200-
NORTHEAST ILLINOIS

CITY           SKY/WX    TMP DP  RH WIND       PRES   REMARKS
CHICAGO-OHARE  PTCLDY    69  63  81 NE7       29.92R
CHICAGO-MIDWAY PTCLDY    70  63  78 E6        29.92R
AURORA         CLEAR     69  63  81 E8        29.91R
LANSING*       CLEAR     67  65  94 NE5       29.92S
JOLIET*        CLEAR     71  65  83 E6        29.91R
WAUKEGAN       MOCLDY    66  65  96 NE6       29.92R
DUPAGE AIRPORT CLEAR     68  64  87 E7        29.91R
KANKAKEE*      CLEAR     67  65  91 NE3       29.92R
WHEELING       CLEAR     68  67  96 SE3       29.94R
MORRIS*        CLEAR     69  64  83 E7        29.90R
ROMEOVILLE*    CLEAR     67  63  86 E7        29.92R
NORTHERLY ISL    N/A     67  63  87 NE5         N/A
$$

LMZ740>746-200200-
SOUTHERN LAKE MICHIGAN

STATION/POSITION SKY/WX   TEMP    WIND        PRES    VSBY  WAVE
                          AIR SEA DIR/SP/G                  HT/PER
                          (F)     (DEG/KT/KT) (MB)    (MI)  (FT/S)
SOUTHERN BUOY              68 69   20/  6/  6 1013.2          1
WILMETTE HARBOR            68 69   70/  6/  6   N/A           1/ 3
HARRISON CRIB              69      40/  4/  5   N/A
CALUMET HARBOR             68      20/  4/  5 1012.7R
BURNS HARBOR               68      70/  6/  8 1013.9R
MICHIGAN CITY              67      50/  4/  5   N/A
MICHIGAN CITY 6N           68 69   70/  6/  6   N/A           1/ 4
ST. JOSEPH                 68 69   90/  4/  6 1013.0S         1/ 3
$$

ILZ025>027-034>036-040-047-049-050-058-095>099-200200-
WEST-CENTRAL ILLINOIS

CITY           SKY/WX    TMP DP  RH WIND       PRES   REMARKS
QUINCY         CLEAR     74  67  78 SE6       29.83S
GALESBURG*     CLEAR     71  64  80 E6        29.87R
MACOMB*        CLEAR     71  66  86 SE5       29.87R
PITTSFIELD*    CLEAR     75  67  77 SE3       29.86R
$$

ILZ028>032-037-038-041>044-048-051>054-059>061-200200-
CENTRAL ILLINOIS

CITY           SKY/WX    TMP DP  RH WIND       PRES   REMARKS
PONTIAC        CLEAR     67  67  98 CALM      29.91R
BLOOMINGTON    CLEAR     74  64  71 S5        29.91R
DECATUR        CLEAR     71  67  87 E5        29.89R
PEORIA         CLEAR     74  66  76 E5        29.88R
LACON*         CLEAR     67  65  94 E3        29.88R
LINCOLN*       CLEAR     74  66  76 E3        29.88S
SPRINGFIELD    CLEAR     76  66  71 E6        29.87R
TAYLORVILLE    NOT AVBL
$$

ILZ033-039-045-046-055>057-062-063-200200-
EAST-CENTRAL ILLINOIS

CITY           SKY/WX    TMP DP  RH WIND       PRES   REMARKS
CHAMPAIGN      CLEAR     71  64  78 E5        29.91R
RANTOUL*       CLEAR     73  67  81 E3        29.91R
MATTOON        CLEAR     74  66  76 NE3       29.89R
$$

ILZ079-100>102-200200-
SOUTHWEST ILLINOIS

CITY           SKY/WX    TMP DP  RH WIND       PRES   REMARKS
ALTON          CLEAR     75  68  78 E7        29.86R
CAHOKIA*       CLEAR     82  67  60 SE6       29.85R HX  84
SPARTA*        CLEAR     78  68  70 SE5       29.88S HX  80
$$

ILZ064>066-069>071-074>076-080>082-084>086-088>090-092>094-200200-
SOUTH-CENTRAL ILLINOIS

CITY           SKY/WX    TMP DP  RH WIND       PRES   REMARKS
CARBONDALE     CLEAR     73  71  93 E5        29.88S
CAIRO*         CLEAR     76  72  87 CALM      29.89R
EFFINGHAM*     CLEAR     73  67  83 CALM      29.91R
MARION         CLEAR     75  72  88 CALM      29.90R
CENTRALIA*     CLEAR     76  69  79 SE5       29.88R
SALEM*         CLEAR     78  67  67 CALM      29.89R HX  80
METROPOLIS*    CLEAR     74  70  88 CALM      29.91R
$$

ILZ067-068-072-073-078-083-087-091-200200-
SOUTHEAST ILLINOIS

CITY           SKY/WX    TMP DP  RH WIND       PRES   REMARKS
LAWRENCEVILLE  CLEAR     74  70  87 SE5       29.91R
FLORA*         PTCLDY    75  69  81 SE5       29.89S
FAIRFIELD*     CLEAR     76  67  74 CALM      29.89R
HARRISBURG*    CLEAR     75  70  84 CALM      29.90R
ROBINSON*      MOCLDY    71  68  89 S3        29.91R
CARMI*         CLEAR     73  69  89 SE5       29.90R
$$

ABBREVIATIONS USED IN REMARKS
   TC - TEMPERATURE IN CELSIUS
  WCI - WIND CHILL INDEX
   HX - HEAT INDEX
  VSB - VISIBILITY
$$





USA.gov is the U.S. government's official web portal to all federal, state and local government web resources and services.